Year,Month,Day,Hour,Minute,Value (Times are PST for temperature in C)
2015,09,22,00,00,9.50
2015,09,22,00,01,9.50
2015,09,22,00,02,9.60
2015,09,22,00,03,9.50
2015,09,22,00,04,9.50
2015,09,22,00,05,9.50
2015,09,22,00,06,9.40
2015,09,22,00,07,9.40
2015,09,22,00,08,9.30
2015,09,22,00,09,9.20
2015,09,22,00,10,9.20
2015,09,22,00,11,9.10
2015,09,22,00,12,9.00
2015,09,22,00,13,9.00
2015,09,22,00,14,8.90
2015,09,22,00,15,8.80
2015,09,22,00,16,8.80
2015,09,22,00,17,8.70
2015,09,22,00,18,8.70
2015,09,22,00,19,8.70
2015,09,22,00,20,8.60
2015,09,22,00,21,8.60
2015,09,22,00,22,8.60
2015,09,22,00,23,8.50
2015,09,22,00,24,8.50
2015,09,22,00,25,8.50
2015,09,22,00,26,8.50
2015,09,22,00,27,8.40
2015,09,22,00,28,8.40
2015,09,22,00,29,8.40
2015,09,22,00,30,8.40
2015,09,22,00,31,8.30
2015,09,22,00,32,8.30
2015,09,22,00,33,8.30
2015,09,22,00,34,8.30
2015,09,22,00,35,8.20
2015,09,22,00,36,8.20
2015,09,22,00,37,8.20
2015,09,22,00,38,8.20
2015,09,22,00,39,8.20
2015,09,22,00,40,8.20
2015,09,22,00,41,8.10
2015,09,22,00,42,8.10
2015,09,22,00,43,8.10
2015,09,22,00,44,8.10
2015,09,22,00,45,8.00
2015,09,22,00,46,8.00
2015,09,22,00,47,8.00
2015,09,22,00,48,8.00
2015,09,22,00,49,8.00
2015,09,22,00,50,8.00
2015,09,22,00,51,8.00
2015,09,22,00,52,8.00
2015,09,22,00,53,7.90
2015,09,22,00,54,7.90
2015,09,22,00,55,7.90
2015,09,22,00,56,7.90
2015,09,22,00,57,7.90
2015,09,22,00,58,7.80
2015,09,22,00,59,7.80
2015,09,22,01,00,7.80
2015,09,22,01,01,7.80
2015,09,22,01,02,7.80
2015,09,22,01,03,7.80
2015,09,22,01,04,7.80
2015,09,22,01,05,7.80
2015,09,22,01,06,7.80
2015,09,22,01,07,7.80
2015,09,22,01,08,7.80
2015,09,22,01,09,7.70
2015,09,22,01,10,7.70
2015,09,22,01,11,7.70
2015,09,22,01,12,7.70
2015,09,22,01,13,7.70
2015,09,22,01,14,7.70
2015,09,22,01,15,7.70
2015,09,22,01,16,7.70
2015,09,22,01,17,7.70
2015,09,22,01,18,7.70
2015,09,22,01,19,7.70
2015,09,22,01,20,7.60
2015,09,22,01,21,7.60
2015,09,22,01,22,7.60
2015,09,22,01,23,7.60
2015,09,22,01,24,7.60
2015,09,22,01,25,7.50
2015,09,22,01,26,7.50
2015,09,22,01,27,7.50
2015,09,22,01,28,7.50
2015,09,22,01,29,7.40
2015,09,22,01,30,7.40
2015,09,22,01,31,7.40
2015,09,22,01,32,7.30
2015,09,22,01,33,7.30
2015,09,22,01,34,7.30
2015,09,22,01,35,7.30
2015,09,22,01,36,7.30
2015,09,22,01,37,7.30
2015,09,22,01,38,7.30
2015,09,22,01,39,7.20
2015,09,22,01,40,7.20
2015,09,22,01,41,7.20
2015,09,22,01,42,7.20
2015,09,22,01,43,7.20
2015,09,22,01,44,7.20
2015,09,22,01,45,7.20
2015,09,22,01,46,7.20
2015,09,22,01,47,7.20
2015,09,22,01,48,7.20
2015,09,22,01,49,7.20
2015,09,22,01,50,7.20
2015,09,22,01,51,7.10
2015,09,22,01,52,7.10
2015,09,22,01,53,7.10
2015,09,22,01,54,7.10
2015,09,22,01,55,7.10
2015,09,22,01,56,7.10
2015,09,22,01,57,7.10
2015,09,22,01,58,7.10
2015,09,22,01,59,7.10
2015,09,22,02,00,7.10
2015,09,22,02,01,7.10
2015,09,22,02,02,7.00
2015,09,22,02,03,7.00
2015,09,22,02,04,7.00
2015,09,22,02,05,7.00
2015,09,22,02,06,7.00
2015,09,22,02,07,7.00
2015,09,22,02,08,7.00
2015,09,22,02,09,7.00
2015,09,22,02,10,7.00
2015,09,22,02,11,7.00
2015,09,22,02,12,7.00
2015,09,22,02,13,7.00
2015,09,22,02,14,7.00
2015,09,22,02,15,7.00
2015,09,22,02,16,6.90
2015,09,22,02,17,6.90
2015,09,22,02,18,6.90
2015,09,22,02,19,6.90
2015,09,22,02,20,6.90
2015,09,22,02,21,6.90
2015,09,22,02,22,6.90
2015,09,22,02,23,6.80
2015,09,22,02,24,6.80
2015,09,22,02,25,6.80
2015,09,22,02,26,6.80
2015,09,22,02,27,6.80
2015,09,22,02,28,6.80
2015,09,22,02,29,6.80
2015,09,22,02,30,6.80
2015,09,22,02,31,6.80
2015,09,22,02,32,6.80
2015,09,22,02,33,6.80
2015,09,22,02,34,6.80
2015,09,22,02,35,6.70
2015,09,22,02,36,6.70
2015,09,22,02,37,6.70
2015,09,22,02,38,6.70
2015,09,22,02,39,6.70
2015,09,22,02,40,6.70
2015,09,22,02,41,6.70
2015,09,22,02,42,6.70
2015,09,22,02,43,6.60
2015,09,22,02,44,6.60
2015,09,22,02,45,6.60
2015,09,22,02,46,6.60
2015,09,22,02,47,6.60
2015,09,22,02,48,6.60
2015,09,22,02,49,6.60
2015,09,22,02,50,6.60
2015,09,22,02,51,6.60
2015,09,22,02,52,6.60
2015,09,22,02,53,6.60
2015,09,22,02,54,6.60
2015,09,22,02,55,6.60
2015,09,22,02,56,6.60
2015,09,22,02,57,6.60
2015,09,22,02,58,6.60
2015,09,22,02,59,6.60
2015,09,22,03,00,6.60
2015,09,22,03,01,6.60
2015,09,22,03,02,6.60
2015,09,22,03,03,6.60
2015,09,22,03,04,6.60
2015,09,22,03,05,6.60
2015,09,22,03,06,6.60
2015,09,22,03,07,6.60
2015,09,22,03,08,6.60
2015,09,22,03,09,6.60
2015,09,22,03,10,6.60
2015,09,22,03,11,6.60
2015,09,22,03,12,6.60
2015,09,22,03,13,6.60
2015,09,22,03,14,6.60
2015,09,22,03,15,6.60
2015,09,22,03,16,6.70
2015,09,22,03,17,6.70
2015,09,22,03,18,6.70
2015,09,22,03,19,6.70
2015,09,22,03,20,6.70
2015,09,22,03,21,6.70
2015,09,22,03,22,6.60
2015,09,22,03,23,6.60
2015,09,22,03,24,6.60
2015,09,22,03,25,6.60
2015,09,22,03,26,6.60
2015,09,22,03,27,6.60
2015,09,22,03,28,6.60
2015,09,22,03,29,6.50
2015,09,22,03,30,6.40
2015,09,22,03,31,6.40
2015,09,22,03,32,6.40
2015,09,22,03,33,6.40
2015,09,22,03,34,6.40
2015,09,22,03,35,6.40
2015,09,22,03,36,6.40
2015,09,22,03,37,6.40
2015,09,22,03,38,6.40
2015,09,22,03,39,6.40
2015,09,22,03,40,6.30
2015,09,22,03,41,6.30
2015,09,22,03,42,6.30
2015,09,22,03,43,6.30
2015,09,22,03,44,6.30
2015,09,22,03,45,6.20
2015,09,22,03,46,6.20
2015,09,22,03,47,6.20
2015,09,22,03,48,6.20
2015,09,22,03,49,6.20
2015,09,22,03,50,6.20
2015,09,22,03,51,6.20
2015,09,22,03,52,6.20
2015,09,22,03,53,6.20
2015,09,22,03,54,6.10
2015,09,22,03,55,6.10
2015,09,22,03,56,6.10
2015,09,22,03,57,6.10
2015,09,22,03,58,6.20
2015,09,22,03,59,6.10
2015,09,22,04,00,6.10
2015,09,22,04,01,6.10
2015,09,22,04,02,6.10
2015,09,22,04,03,6.10
2015,09,22,04,04,6.10
2015,09,22,04,05,6.10
2015,09,22,04,06,6.10
2015,09,22,04,07,6.00
2015,09,22,04,08,6.00
2015,09,22,04,09,6.00
2015,09,22,04,10,6.00
2015,09,22,04,11,6.00
2015,09,22,04,12,6.00
2015,09,22,04,13,6.00
2015,09,22,04,14,6.00
2015,09,22,04,15,6.00
2015,09,22,04,16,6.00
2015,09,22,04,17,6.00
2015,09,22,04,18,6.00
2015,09,22,04,19,6.00
2015,09,22,04,20,6.00
2015,09,22,04,21,6.00
2015,09,22,04,22,6.00
2015,09,22,04,23,6.00
2015,09,22,04,24,6.00
2015,09,22,04,25,6.00
2015,09,22,04,26,6.00
2015,09,22,04,27,6.00
2015,09,22,04,28,6.00
2015,09,22,04,29,6.00
2015,09,22,04,30,6.00
2015,09,22,04,31,6.00
2015,09,22,04,32,6.00
2015,09,22,04,33,6.00
2015,09,22,04,34,6.00
2015,09,22,04,35,6.00
2015,09,22,04,36,6.00
2015,09,22,04,37,6.00
2015,09,22,04,38,6.00
2015,09,22,04,39,6.00
2015,09,22,04,40,6.00
2015,09,22,04,41,6.00
2015,09,22,04,42,6.00
2015,09,22,04,43,5.90
2015,09,22,04,44,5.90
2015,09,22,04,45,5.90
2015,09,22,04,46,5.90
2015,09,22,04,47,5.90
2015,09,22,04,48,5.90
2015,09,22,04,49,5.80
2015,09,22,04,50,5.80
2015,09,22,04,51,5.80
2015,09,22,04,52,5.80
2015,09,22,04,53,5.70
2015,09,22,04,54,5.70
2015,09,22,04,55,5.70
2015,09,22,04,56,5.70
2015,09,22,04,57,5.70
2015,09,22,04,58,5.60
2015,09,22,04,59,5.60
2015,09,22,05,00,5.60
2015,09,22,05,01,5.50
2015,09,22,05,02,5.50
2015,09,22,05,03,5.50
2015,09,22,05,04,5.50
2015,09,22,05,05,5.50
2015,09,22,05,06,5.50
2015,09,22,05,07,5.50
2015,09,22,05,08,5.50
2015,09,22,05,09,5.40
2015,09,22,05,10,5.50
2015,09,22,05,11,5.50
2015,09,22,05,12,5.50
2015,09,22,05,13,5.50
2015,09,22,05,14,5.40
2015,09,22,05,15,5.40
2015,09,22,05,16,5.40
2015,09,22,05,17,5.40
2015,09,22,05,18,5.50
2015,09,22,05,19,5.50
2015,09,22,05,20,5.50
2015,09,22,05,21,5.50
2015,09,22,05,22,5.50
2015,09,22,05,23,5.40
2015,09,22,05,24,5.50
2015,09,22,05,25,5.50
2015,09,22,05,26,5.50
2015,09,22,05,27,5.50
2015,09,22,05,28,5.50
2015,09,22,05,29,5.50
2015,09,22,05,30,5.40
2015,09,22,05,31,5.40
2015,09,22,05,32,5.40
2015,09,22,05,33,5.40
2015,09,22,05,34,5.30
2015,09,22,05,35,5.30
2015,09,22,05,36,5.30
2015,09,22,05,37,5.30
2015,09,22,05,38,5.30
2015,09,22,05,39,5.30
2015,09,22,05,40,5.30
2015,09,22,05,41,5.30
2015,09,22,05,42,5.20
2015,09,22,05,43,5.20
2015,09,22,05,44,5.20
2015,09,22,05,45,5.30
2015,09,22,05,46,5.30
2015,09,22,05,47,5.30
2015,09,22,05,48,5.30
2015,09,22,05,49,5.30
2015,09,22,05,50,5.30
2015,09,22,05,51,5.30
2015,09,22,05,52,5.30
2015,09,22,05,53,5.30
2015,09,22,05,54,5.30
2015,09,22,05,55,5.30
2015,09,22,05,56,5.30
2015,09,22,05,57,5.30
2015,09,22,05,58,5.30
2015,09,22,05,59,5.30
2015,09,22,06,00,5.30
2015,09,22,06,01,5.30
2015,09,22,06,02,5.30
2015,09,22,06,03,5.30
2015,09,22,06,04,5.30
2015,09,22,06,05,5.20
2015,09,22,06,06,5.20
2015,09,22,06,07,5.20
2015,09,22,06,08,5.10
2015,09,22,06,09,5.10
2015,09,22,06,10,5.10
2015,09,22,06,11,5.10
2015,09,22,06,12,5.10
2015,09,22,06,13,5.10
2015,09,22,06,14,5.10
2015,09,22,06,15,5.10
2015,09,22,06,16,5.10
2015,09,22,06,17,5.10
2015,09,22,06,18,5.10
2015,09,22,06,19,5.10
2015,09,22,06,20,5.00
2015,09,22,06,21,4.90
2015,09,22,06,22,4.90
2015,09,22,06,23,4.90
2015,09,22,06,24,4.90
2015,09,22,06,25,5.10
2015,09,22,06,26,5.10
2015,09,22,06,27,5.10
2015,09,22,06,28,5.10
2015,09,22,06,29,5.10
2015,09,22,06,30,5.10
2015,09,22,06,31,5.10
2015,09,22,06,32,5.10
2015,09,22,06,33,5.10
2015,09,22,06,34,5.10
2015,09,22,06,35,5.10
2015,09,22,06,36,5.10
2015,09,22,06,37,5.10
2015,09,22,06,38,5.10
2015,09,22,06,39,5.10
2015,09,22,06,40,5.10
2015,09,22,06,41,5.00
2015,09,22,06,42,4.90
2015,09,22,06,43,4.90
2015,09,22,06,44,4.90
2015,09,22,06,45,4.90
2015,09,22,06,46,4.90
2015,09,22,06,47,4.80
2015,09,22,06,48,4.80
2015,09,22,06,49,4.80
2015,09,22,06,50,4.80
2015,09,22,06,51,4.80
2015,09,22,06,52,4.80
2015,09,22,06,53,4.80
2015,09,22,06,54,4.80
2015,09,22,06,55,4.80
2015,09,22,06,56,4.80
2015,09,22,06,57,4.80
2015,09,22,06,58,4.80
2015,09,22,06,59,4.80
2015,09,22,07,00,4.80
2015,09,22,07,01,4.80
2015,09,22,07,02,4.80
2015,09,22,07,03,4.80
2015,09,22,07,04,4.80
2015,09,22,07,05,4.80
2015,09,22,07,06,4.80
2015,09,22,07,07,4.80
2015,09,22,07,08,4.80
2015,09,22,07,09,4.80
2015,09,22,07,10,4.80
2015,09,22,07,11,4.80
2015,09,22,07,12,4.80
2015,09,22,07,13,4.80
2015,09,22,07,14,4.90
2015,09,22,07,15,4.90
2015,09,22,07,16,4.90
2015,09,22,07,17,4.90
2015,09,22,07,18,4.90
2015,09,22,07,19,5.00
2015,09,22,07,20,5.10
2015,09,22,07,21,5.10
2015,09,22,07,22,5.10
2015,09,22,07,23,5.10
2015,09,22,07,24,5.10
2015,09,22,07,25,5.10
2015,09,22,07,26,5.10
2015,09,22,07,27,5.10
2015,09,22,07,28,5.20
2015,09,22,07,29,5.20
2015,09,22,07,30,5.20
2015,09,22,07,31,5.30
2015,09,22,07,32,5.30
2015,09,22,07,33,5.30
2015,09,22,07,34,5.30
2015,09,22,07,35,5.30
2015,09,22,07,36,5.30
2015,09,22,07,37,5.30
2015,09,22,07,38,5.40
2015,09,22,07,39,5.40
2015,09,22,07,40,5.50
2015,09,22,07,41,5.50
2015,09,22,07,42,5.60
2015,09,22,07,43,5.70
2015,09,22,07,44,5.70
2015,09,22,07,45,5.70
2015,09,22,07,46,5.80
2015,09,22,07,47,5.90
2015,09,22,07,48,6.00
2015,09,22,07,49,6.00
2015,09,22,07,50,6.10
2015,09,22,07,51,6.10
2015,09,22,07,52,6.20
2015,09,22,07,53,6.20
2015,09,22,07,54,6.30
2015,09,22,07,55,6.40
2015,09,22,07,56,6.40
2015,09,22,07,57,6.50
2015,09,22,07,58,6.60
2015,09,22,07,59,6.60
2015,09,22,08,00,6.70
2015,09,22,08,01,6.70
2015,09,22,08,02,6.80
2015,09,22,08,03,6.80
2015,09,22,08,04,6.80
2015,09,22,08,05,6.90
2015,09,22,08,06,6.90
2015,09,22,08,07,6.90
2015,09,22,08,08,6.90
2015,09,22,08,09,7.00
2015,09,22,08,10,7.00
2015,09,22,08,11,7.00
2015,09,22,08,12,7.10
2015,09,22,08,13,7.20
2015,09,22,08,14,7.30
2015,09,22,08,15,7.30
2015,09,22,08,16,7.30
2015,09,22,08,17,7.40
2015,09,22,08,18,7.50
2015,09,22,08,19,7.50
2015,09,22,08,20,7.60
2015,09,22,08,21,7.60
2015,09,22,08,22,7.60
2015,09,22,08,23,7.70
2015,09,22,08,24,7.80
2015,09,22,08,25,7.80
2015,09,22,08,26,7.80
2015,09,22,08,27,7.90
2015,09,22,08,28,8.00
2015,09,22,08,29,8.10
2015,09,22,08,30,8.20
2015,09,22,08,31,8.30
2015,09,22,08,32,8.30
2015,09,22,08,33,8.40
2015,09,22,08,34,8.50
2015,09,22,08,35,8.60
2015,09,22,08,36,8.70
2015,09,22,08,37,8.70
2015,09,22,08,38,8.80
2015,09,22,08,39,8.80
2015,09,22,08,40,8.90
2015,09,22,08,41,8.90
2015,09,22,08,42,8.90
2015,09,22,08,43,9.00
2015,09,22,08,44,9.10
2015,09,22,08,45,9.20
2015,09,22,08,46,9.30
2015,09,22,08,47,9.40
2015,09,22,08,48,9.60
2015,09,22,08,49,9.70
2015,09,22,08,50,9.80
2015,09,22,08,51,9.90
2015,09,22,08,52,10.00
2015,09,22,08,53,10.10
2015,09,22,08,54,10.20
2015,09,22,08,55,10.30
2015,09,22,08,56,10.30
2015,09,22,08,57,10.40
2015,09,22,08,58,10.40
2015,09,22,08,59,10.60
2015,09,22,09,00,10.60
2015,09,22,09,01,10.70
2015,09,22,09,02,10.80
2015,09,22,09,03,10.90
2015,09,22,09,04,10.90
2015,09,22,09,05,10.90
2015,09,22,09,06,10.90
2015,09,22,09,07,11.10
2015,09,22,09,08,11.10
2015,09,22,09,09,11.10
2015,09,22,09,10,11.20
2015,09,22,09,11,11.30
2015,09,22,09,12,11.40
2015,09,22,09,13,11.50
2015,09,22,09,14,11.60
2015,09,22,09,15,11.70
2015,09,22,09,16,11.70
2015,09,22,09,17,11.80
2015,09,22,09,18,11.90
2015,09,22,09,19,11.90
2015,09,22,09,20,12.00
2015,09,22,09,21,12.10
2015,09,22,09,22,12.20
2015,09,22,09,23,12.20
2015,09,22,09,24,12.30
2015,09,22,09,25,12.30
2015,09,22,09,26,12.30
2015,09,22,09,27,12.40
2015,09,22,09,28,12.40
2015,09,22,09,29,12.40
2015,09,22,09,30,12.40
2015,09,22,09,31,12.40
2015,09,22,09,32,12.50
2015,09,22,09,33,12.50
2015,09,22,09,34,12.50
2015,09,22,09,35,12.60
2015,09,22,09,36,12.70
2015,09,22,09,37,12.80
2015,09,22,09,38,12.80
2015,09,22,09,39,12.80
2015,09,22,09,40,12.90
2015,09,22,09,41,12.90
2015,09,22,09,42,12.90
2015,09,22,09,43,12.80
2015,09,22,09,44,12.80
2015,09,22,09,45,12.80
2015,09,22,09,46,12.80
2015,09,22,09,47,12.80
2015,09,22,09,48,12.90
2015,09,22,09,49,12.90
2015,09,22,09,50,12.90
2015,09,22,09,51,13.00
2015,09,22,09,52,13.00
2015,09,22,09,53,13.10
2015,09,22,09,54,13.10
2015,09,22,09,55,13.20
2015,09,22,09,56,13.20
2015,09,22,09,57,13.30
2015,09,22,09,58,13.30
2015,09,22,09,59,13.30
2015,09,22,10,00,13.40
2015,09,22,10,01,13.40
2015,09,22,10,02,13.50
2015,09,22,10,03,13.60
2015,09,22,10,04,13.70
2015,09,22,10,05,13.70
2015,09,22,10,06,13.70
2015,09,22,10,07,13.70
2015,09,22,10,08,13.70
2015,09,22,10,09,13.60
2015,09,22,10,10,13.60
2015,09,22,10,11,13.60
2015,09,22,10,12,13.60
2015,09,22,10,13,13.60
2015,09,22,10,14,13.60
2015,09,22,10,15,13.60
2015,09,22,10,16,13.60
2015,09,22,10,17,13.70
2015,09,22,10,18,13.70
2015,09,22,10,19,13.80
2015,09,22,10,20,13.90
2015,09,22,10,21,13.90
2015,09,22,10,22,14.00
2015,09,22,10,23,14.00
2015,09,22,10,24,14.10
2015,09,22,10,25,14.10
2015,09,22,10,26,14.10
2015,09,22,10,27,14.10
2015,09,22,10,28,14.10
2015,09,22,10,29,14.20
2015,09,22,10,30,14.20
2015,09,22,10,31,14.20
2015,09,22,10,32,14.20
2015,09,22,10,33,14.30
2015,09,22,10,34,14.40
2015,09,22,10,35,14.40
2015,09,22,10,36,14.40
2015,09,22,10,37,14.50
2015,09,22,10,38,14.50
2015,09,22,10,39,14.60
2015,09,22,10,40,14.60
2015,09,22,10,41,14.60
2015,09,22,10,42,14.60
2015,09,22,10,43,14.60
2015,09,22,10,44,14.60
2015,09,22,10,45,14.60
2015,09,22,10,46,14.60
2015,09,22,10,47,14.60
2015,09,22,10,48,14.70
2015,09,22,10,49,14.70
2015,09,22,10,50,14.70
2015,09,22,10,51,14.80
2015,09,22,10,52,14.80
2015,09,22,10,53,14.80
2015,09,22,10,54,14.80
2015,09,22,10,55,14.90
2015,09,22,10,56,14.90
2015,09,22,10,57,15.00
2015,09,22,10,58,15.00
2015,09,22,10,59,15.00
2015,09,22,11,00,15.00
2015,09,22,11,01,14.90
2015,09,22,11,02,14.80
2015,09,22,11,03,14.80
2015,09,22,11,04,14.70
2015,09,22,11,05,14.60
2015,09,22,11,06,14.60
2015,09,22,11,07,14.50
2015,09,22,11,08,14.50
2015,09,22,11,09,14.50
2015,09,22,11,10,14.50
2015,09,22,11,11,14.50
2015,09,22,11,12,14.60
2015,09,22,11,13,14.60
2015,09,22,11,14,14.60
2015,09,22,11,15,14.60
2015,09,22,11,16,14.60
2015,09,22,11,17,14.70
2015,09,22,11,18,14.70
2015,09,22,11,19,14.70
2015,09,22,11,20,14.70
2015,09,22,11,21,14.70
2015,09,22,11,22,14.70
2015,09,22,11,23,14.80
2015,09,22,11,24,14.80
2015,09,22,11,25,14.80
2015,09,22,11,26,14.80
2015,09,22,11,27,14.70
2015,09,22,11,28,14.70
2015,09,22,11,29,14.80
2015,09,22,11,30,14.80
2015,09,22,11,31,14.80
2015,09,22,11,32,14.80
2015,09,22,11,33,14.90
2015,09,22,11,34,14.90
2015,09,22,11,35,15.00
2015,09,22,11,36,15.00
2015,09,22,11,37,14.90
2015,09,22,11,38,15.00
2015,09,22,11,39,15.00
2015,09,22,11,40,15.00
2015,09,22,11,41,15.00
2015,09,22,11,42,15.00
2015,09,22,11,43,15.10
2015,09,22,11,44,15.20
2015,09,22,11,45,15.20
2015,09,22,11,46,15.30
2015,09,22,11,47,15.50
2015,09,22,11,48,15.50
2015,09,22,11,49,15.50
2015,09,22,11,50,15.50
2015,09,22,11,51,15.50
2015,09,22,11,52,15.50
2015,09,22,11,53,15.60
2015,09,22,11,54,15.50
2015,09,22,11,55,15.50
2015,09,22,11,56,15.50
2015,09,22,11,57,15.50
2015,09,22,11,58,15.40
2015,09,22,11,59,15.40
2015,09,22,12,00,15.50
2015,09,22,12,01,15.50
2015,09,22,12,02,15.40
2015,09,22,12,03,15.30
2015,09,22,12,04,15.30
2015,09,22,12,05,15.20
2015,09,22,12,06,15.20
2015,09,22,12,07,15.10
2015,09,22,12,08,15.20
2015,09,22,12,09,15.20
2015,09,22,12,10,15.30
2015,09,22,12,11,15.20
2015,09,22,12,12,15.20
2015,09,22,12,13,15.10
2015,09,22,12,14,15.00
2015,09,22,12,15,14.90
2015,09,22,12,16,14.80
2015,09,22,12,17,14.70
2015,09,22,12,18,14.80
2015,09,22,12,19,14.80
2015,09,22,12,20,14.80
2015,09,22,12,21,14.90
2015,09,22,12,22,15.00
2015,09,22,12,23,15.00
2015,09,22,12,24,15.00
2015,09,22,12,25,15.00
2015,09,22,12,26,15.00
2015,09,22,12,27,14.90
2015,09,22,12,28,14.90
2015,09,22,12,29,14.80
2015,09,22,12,30,14.60
2015,09,22,12,31,14.60
2015,09,22,12,32,14.50
2015,09,22,12,33,14.40
2015,09,22,12,34,14.30
2015,09,22,12,35,14.30
2015,09,22,12,36,14.30
2015,09,22,12,37,14.40
2015,09,22,12,38,14.50
2015,09,22,12,39,14.60
2015,09,22,12,40,14.60
2015,09,22,12,41,14.70
2015,09,22,12,42,14.70
2015,09,22,12,43,14.70
2015,09,22,12,44,14.70
2015,09,22,12,45,14.70
2015,09,22,12,46,14.70
2015,09,22,12,47,14.70
2015,09,22,12,48,14.80
2015,09,22,12,49,14.80
2015,09,22,12,50,14.80
2015,09,22,12,51,14.80
2015,09,22,12,52,14.80
2015,09,22,12,53,14.80
2015,09,22,12,54,14.80
2015,09,22,12,55,14.90
2015,09,22,12,56,14.90
2015,09,22,12,57,14.90
2015,09,22,12,58,14.90
2015,09,22,12,59,14.90
2015,09,22,13,00,14.90
2015,09,22,13,01,14.90
2015,09,22,13,02,15.00
2015,09,22,13,03,15.00
2015,09,22,13,04,15.00
2015,09,22,13,05,15.00
2015,09,22,13,06,15.00
2015,09,22,13,07,15.10
2015,09,22,13,08,15.10
2015,09,22,13,09,15.20
2015,09,22,13,10,15.10
2015,09,22,13,11,15.10
2015,09,22,13,12,15.20
2015,09,22,13,13,15.20
2015,09,22,13,14,15.30
2015,09,22,13,15,15.30
2015,09,22,13,16,15.40
2015,09,22,13,17,15.40
2015,09,22,13,18,15.50
2015,09,22,13,19,15.50
2015,09,22,13,20,15.60
2015,09,22,13,21,15.70
2015,09,22,13,22,15.70
2015,09,22,13,23,15.60
2015,09,22,13,24,15.50
2015,09,22,13,25,15.50
2015,09,22,13,26,15.40
2015,09,22,13,27,15.40
2015,09,22,13,28,15.40
2015,09,22,13,29,15.30
2015,09,22,13,30,15.30
2015,09,22,13,31,15.30
2015,09,22,13,32,15.30
2015,09,22,13,33,15.40
2015,09,22,13,34,15.50
2015,09,22,13,35,15.50
2015,09,22,13,36,15.60
2015,09,22,13,37,15.60
2015,09,22,13,38,15.60
2015,09,22,13,39,15.70
2015,09,22,13,40,15.80
2015,09,22,13,41,15.80
2015,09,22,13,42,15.80
2015,09,22,13,43,15.80
2015,09,22,13,44,15.80
2015,09,22,13,45,15.80
2015,09,22,13,46,15.80
2015,09,22,13,47,15.80
2015,09,22,13,48,15.80
2015,09,22,13,49,15.80
2015,09,22,13,50,15.90
2015,09,22,13,51,16.00
2015,09,22,13,52,16.10
2015,09,22,13,53,16.10
2015,09,22,13,54,16.20
2015,09,22,13,55,16.30
2015,09,22,13,56,16.30
2015,09,22,13,57,16.30
2015,09,22,13,58,16.20
2015,09,22,13,59,16.10
2015,09,22,14,00,16.10
2015,09,22,14,01,16.10
2015,09,22,14,02,16.00
2015,09,22,14,03,15.90
2015,09,22,14,04,15.80
2015,09,22,14,05,15.80
2015,09,22,14,06,15.70
2015,09,22,14,07,15.70
2015,09,22,14,08,15.60
2015,09,22,14,09,15.60
2015,09,22,14,10,15.60
2015,09,22,14,11,15.60
2015,09,22,14,12,15.60
2015,09,22,14,13,15.70
2015,09,22,14,14,15.70
2015,09,22,14,15,15.80
2015,09,22,14,16,15.80
2015,09,22,14,17,15.90
2015,09,22,14,18,15.90
2015,09,22,14,19,16.00
2015,09,22,14,20,16.10
2015,09,22,14,21,16.30
2015,09,22,14,22,16.40
2015,09,22,14,23,16.40
2015,09,22,14,24,16.30
2015,09,22,14,25,16.30
2015,09,22,14,26,16.20
2015,09,22,14,27,16.20
2015,09,22,14,28,16.20
2015,09,22,14,29,16.20
2015,09,22,14,30,16.10
2015,09,22,14,31,16.00
2015,09,22,14,32,15.90
2015,09,22,14,33,15.90
2015,09,22,14,34,15.90
2015,09,22,14,35,15.90
2015,09,22,14,36,15.80
2015,09,22,14,37,15.80
2015,09,22,14,38,15.80
2015,09,22,14,39,15.80
2015,09,22,14,40,15.80
2015,09,22,14,41,15.60
2015,09,22,14,42,15.50
2015,09,22,14,43,15.40
2015,09,22,14,44,15.30
2015,09,22,14,45,15.30
2015,09,22,14,46,15.30
2015,09,22,14,47,15.30
2015,09,22,14,48,15.20
2015,09,22,14,49,15.20
2015,09,22,14,50,15.20
2015,09,22,14,51,15.20
2015,09,22,14,52,15.30
2015,09,22,14,53,15.40
2015,09,22,14,54,15.50
2015,09,22,14,55,15.50
2015,09,22,14,56,15.50
2015,09,22,14,57,15.50
2015,09,22,14,58,15.50
2015,09,22,14,59,15.50
2015,09,22,15,00,15.50
2015,09,22,15,01,15.50
2015,09,22,15,02,15.60
2015,09,22,15,03,15.60
2015,09,22,15,04,15.70
2015,09,22,15,05,15.80
2015,09,22,15,06,15.80
2015,09,22,15,07,15.80
2015,09,22,15,08,15.80
2015,09,22,15,09,15.70
2015,09,22,15,10,15.60
2015,09,22,15,11,15.50
2015,09,22,15,12,15.50
2015,09,22,15,13,15.40
2015,09,22,15,14,15.40
2015,09,22,15,15,15.40
2015,09,22,15,16,15.30
2015,09,22,15,17,15.20
2015,09,22,15,18,15.00
2015,09,22,15,19,14.90
2015,09,22,15,20,14.80
2015,09,22,15,21,14.70
2015,09,22,15,22,14.70
2015,09,22,15,23,14.70
2015,09,22,15,24,14.60
2015,09,22,15,25,14.60
2015,09,22,15,26,14.60
2015,09,22,15,27,14.60
2015,09,22,15,28,14.60
2015,09,22,15,29,14.60
2015,09,22,15,30,14.60
2015,09,22,15,31,14.50
2015,09,22,15,32,14.50
2015,09,22,15,33,14.40
2015,09,22,15,34,14.40
2015,09,22,15,35,14.50
2015,09,22,15,36,14.50
2015,09,22,15,37,14.60
2015,09,22,15,38,14.70
2015,09,22,15,39,14.70
2015,09,22,15,40,14.70
2015,09,22,15,41,14.60
2015,09,22,15,42,14.70
2015,09,22,15,43,14.70
2015,09,22,15,44,14.60
2015,09,22,15,45,14.60
2015,09,22,15,46,14.60
2015,09,22,15,47,14.60
2015,09,22,15,48,14.50
2015,09,22,15,49,14.50
2015,09,22,15,50,14.40
2015,09,22,15,51,14.40
2015,09,22,15,52,14.30
2015,09,22,15,53,14.20
2015,09,22,15,54,14.30
2015,09,22,15,55,14.30
2015,09,22,15,56,14.30
2015,09,22,15,57,14.30
2015,09,22,15,58,14.20
2015,09,22,15,59,14.20
2015,09,22,16,00,14.20
2015,09,22,16,01,14.20
2015,09,22,16,02,14.20
2015,09,22,16,03,14.20
2015,09,22,16,04,14.10
2015,09,22,16,05,14.10
2015,09,22,16,06,14.10
2015,09,22,16,07,14.10
2015,09,22,16,08,14.10
2015,09,22,16,09,14.10
2015,09,22,16,10,14.10
2015,09,22,16,11,14.10
2015,09,22,16,12,14.10
2015,09,22,16,13,14.10
2015,09,22,16,14,14.20
2015,09,22,16,15,14.20
2015,09,22,16,16,14.20
2015,09,22,16,17,14.20
2015,09,22,16,18,14.20
2015,09,22,16,19,14.20
2015,09,22,16,20,14.20
2015,09,22,16,21,14.10
2015,09,22,16,22,14.00
2015,09,22,16,23,14.00
2015,09,22,16,24,13.90
2015,09,22,16,25,13.90
2015,09,22,16,26,13.90
2015,09,22,16,27,13.90
2015,09,22,16,28,13.80
2015,09,22,16,29,13.80
2015,09,22,16,30,13.80
2015,09,22,16,31,13.80
2015,09,22,16,32,13.90
2015,09,22,16,33,13.90
2015,09,22,16,34,13.90
2015,09,22,16,35,13.80
2015,09,22,16,36,13.80
2015,09,22,16,37,13.80
2015,09,22,16,38,13.90
2015,09,22,16,39,13.90
2015,09,22,16,40,13.90
2015,09,22,16,41,13.90
2015,09,22,16,42,13.90
2015,09,22,16,43,13.90
2015,09,22,16,44,13.90
2015,09,22,16,45,13.90
2015,09,22,16,46,13.90
2015,09,22,16,47,13.90
2015,09,22,16,48,14.00
2015,09,22,16,49,14.00
2015,09,22,16,50,14.00
2015,09,22,16,51,14.10
2015,09,22,16,52,14.10
2015,09,22,16,53,14.10
2015,09,22,16,54,14.00
2015,09,22,16,55,14.00
2015,09,22,16,56,14.00
2015,09,22,16,57,14.00
2015,09,22,16,58,14.00
2015,09,22,16,59,14.00
2015,09,22,17,00,14.00
2015,09,22,17,01,14.00
2015,09,22,17,02,14.10
2015,09,22,17,03,14.10
2015,09,22,17,04,14.20
2015,09,22,17,05,14.20
2015,09,22,17,06,14.20
2015,09,22,17,07,14.20
2015,09,22,17,08,14.20
2015,09,22,17,09,14.20
2015,09,22,17,10,14.20
2015,09,22,17,11,14.20
2015,09,22,17,12,14.20
2015,09,22,17,13,14.10
2015,09,22,17,14,14.00
2015,09,22,17,15,14.00
2015,09,22,17,16,14.00
2015,09,22,17,17,14.00
2015,09,22,17,18,14.00
2015,09,22,17,19,14.00
2015,09,22,17,20,14.00
2015,09,22,17,21,13.90
2015,09,22,17,22,13.90
2015,09,22,17,23,13.90
2015,09,22,17,24,13.90
2015,09,22,17,25,13.90
2015,09,22,17,26,14.00
2015,09,22,17,27,14.00
2015,09,22,17,28,13.90
2015,09,22,17,29,13.90
2015,09,22,17,30,13.90
2015,09,22,17,31,13.90
2015,09,22,17,32,13.90
2015,09,22,17,33,14.00
2015,09,22,17,34,14.00
2015,09,22,17,35,14.10
2015,09,22,17,36,14.00
2015,09,22,17,37,13.90
2015,09,22,17,38,13.90
2015,09,22,17,39,13.90
2015,09,22,17,40,13.90
2015,09,22,17,41,13.90
2015,09,22,17,42,14.00